(519687) = 2013 AZ185

Discovered at Kitt Peak on 2006-10-20 by Spacewatch.

Orbit

Orbit type: Main Belt

Note: WebGL enabled browser required.

epoch2024-03-31.0
epoch JD2460400.5
perihelion date2023-09-02.46045
perihelion JD2460189.96045
argument of perihelion (°)271.88888
ascending node (°)191.80500
inclination (°)3.17481
eccentricity0.0416282
perihelion distance (AU)2.9367713
Tisserand w.r.t. Jupiter3.2
ΔV w.r.t. Earth (km/sec)10.7
semimajor axis (AU)3.0643341
mean anomaly (°)38.68418
mean daily motion (°/day)0.18373830
aphelion distance (AU)3.192
period (years)5.36
P-vector [x]-0.23642058
P-vector [y]0.91204242
P-vector [z]0.33508796
Q-vector [x]-0.97158475
Q-vector [y]-0.21788026
Q-vector [z]-0.09247300
absolute magnitude16.98
phase slope0.15
uncertainty0
referenceMPEC 2024-D35
observations used142
oppositions12
arc length (days)6327
first opposition used2006
last opposition used2024
residual rms (arc-secs)0.97
perturbers coarse indicatorM-v
perturbers precise indicator003Ek
first observation date used2006-10-20.0
last observation date used2024-02-15.0
computer namePan
Minimum Orbit Intersection Distances (in AU)
for orbit epoch: 2460400.5, reference: E2024-D35
Mercury2.62145
Venus2.22078
Earth1.95636
Mars1.31068
Jupiter1.86608
Saturn6.10283
Uranus15.4324
Neptune26.786

Observations

149 total observations over interval: 2006 10 20.45311 – 2024 02 15.329461
These data are available for download (format description).

